Wind_Speed
49 48 47 45 41 40 38 37 35 33 32 31 26 23 21 19 19 17 14 11 14 13 9 7 7 5 5 7 8 8 10 12 12 11 12 13 13 14 15 18 19 19 24
51 48 48 47 44 43 41 38 37 36 35 33 27 25 23 21 20 18 15 12 14 14 10 7 7 4 6 8 9 8 7 6 8 9 8 9 10 12 14 18 21 23 21
55 51 50 47 45 44 41 40 39 38 35 31 30 26 24 24 22 20 16 13 15 14 12 8 8 4 6 7 7 6 6 4 4 5 6 7 10 13 16 14 14 16 20
56 53 52 50 47 46 43 42 41 39 35 33 32 29 27 27 23 21 19 15 16 14 13 10 9 5 6 7 7 5 4 4 5 6 8 9 13 13 11 14 12 14 17
58 56 54 53 51 49 47 45 43 41 38 37 35 32 30 29 26 23 20 19 17 15 14 12 10 6 7 8 6 3 4 5 7 7 7 8 9 8 8 13 14 18 18
59 58 58 56 53 51 50 47 45 43 42 40 36 34 34 31 28 25 22 21 19 17 16 14 10 7 7 9 6 3 4 5 5 8 9 9 7 9 9 13 14 16 16
56 56 57 57 56 55 52 50 48 46 44 41 39 37 36 34 29 28 25 24 22 20 18 17 13 9 8 9 6 3 3 4 4 6 6 7 6 9 10 11 11 13 15
55 55 54 55 55 54 53 50 49 46 44 42 41 40 38 35 33 30 28 27 25 23 20 19 15 12 10 10 8 5 4 3 3 3 4 4 3 5 7 9 11 12 14
51 53 55 54 52 52 51 49 48 47 45 44 43 42 38 37 35 32 31 30 28 26 22 21 18 16 13 11 10 7 6 5 3 3 2 2 4 7 8 9 10 11 13
55 51 50 50 51 51 49 49 48 48 46 44 42 42 41 39 36 34 34 32 30 28 25 24 21 19 16 13 11 9 7 6 5 4 4 5 5 6 6 5 8 10 12
51 53 52 51 50 49 50 50 49 47 46 45 44 43 42 40 38 38 36 34 33 31 29 26 24 22 19 16 12 11 9 9 6 6 5 5 5 3 3 4 7 9 11
53 52 52 52 50 49 48 48 48 47 47 45 45 44 43 41 41 41 40 37 35 33 32 29 27 24 21 18 14 12 10 10 8 7 7 6 4 2 1 3 5 7 12
52 50 51 52 51 50 49 48 48 46 45 46 45 44 44 44 44 42 40 39 36 36 35 31 29 26 24 21 17 14 12 11 10 9 7 6 5 3 2 2 3 6 9
47 50 52 52 52 52 51 49 48 47 47 47 47 47 46 45 43 43 42 40 38 38 35 33 31 29 27 24 21 16 14 13 12 11 11 10 10 7 5 3 2 3 6
48 47 48 53 54 55 55 52 50 50 49 49 47 46 45 43 42 43 43 43 42 40 39 37 34 31 29 28 25 19 16 15 13 14 15 15 14 12 10 8 6 4 8
44 44 44 44 46 50 50 51 51 51 51 47 44 43 44 46 50 51 49 47 44 45 42 39 36 35 34 31 27 21 19 17 16 17 18 17 16 16 15 12 10 6 9
38 43 43 43 42 42 45 48 50 50 50 51 50 50 50 48 51 47 48 48 48 47 41 37 37 36 35 32 29 26 23 19 18 20 21 21 21 20 19 16 12 11 14
39 40 42 43 44 43 43 44 48 49 50 51 51 50 49 49 50 48 48 48 47 41 39 36 37 37 36 34 31 30 28 22 22 22 24 24 23 22 21 19 18 18 19
44 43 43 44 44 44 44 43 43 43 44 46 49 49 49 47 49 50 49 43 41 38 36 36 38 37 36 35 34 32 30 27 26 24 24 25 24 23 23 23 23 26 25
53 48 47 48 46 44 43 43 43 43 43 43 43 42 43 47 49 43 43 42 41 39 39 40 41 41 41 41 39 36 33 32 29 28 29 28 26 26 27 27 27 28 30
59 57 50 49 48 46 45 45 45 45 44 43 42 45 47 46 46 44 46 44 47 45 43 46 47 46 46 46 43 40 38 37 35 34 36 35 31 30 31 31 32 32 33
62 65 64 58 52 51 49 48 49 49 47 45 43 43 43 44 45 43 42 42 43 44 45 47 47 49 50 49 47 43 38 37 38 37 38 39 37 34 35 35 36 35 37
69 70 67 65 64 61 58 56 55 54 53 49 47 45 44 44 45 45 44 42 43 43 44 45 46 48 49 49 46 43 41 40 43 43 41 40 39 39 41 39 38 43 43
79 77 74 70 68 66 65 64 62 60 59 57 55 53 50 48 48 47 45 45 46 46 46 46 47 48 49 51 50 48 47 46 46 46 45 44 43 43 43 45 41 43 46
73 76 79 75 75 72 69 68 67 65 64 64 60 61 58 55 52 53 52 50 48 47 47 48 50 50 51 52 52 51 51 50 50 50 49 48 48 49 50 50 46 47 47
73 73 70 72 72 72 74 74 74 71 67 66 65 65 64 64 63 62 59 58 56 54 53 52 52 53 54 54 54 55 55 54 53 53 52 52 52 53 53 53 51 48 49
Wind_Direction
220 218 222 223 223 224 223 224 226 227 232 237 243 249 258 266 275 279 281 288 284 291 305 320 312 353 3 359 350 336 313 297 298 308 319 319 326 328 322 321 321 320 325
220 217 220 221 220 221 222 222 225 228 233 241 245 249 254 262 268 270 271 274 278 285 296 303 295 333 354 351 350 324 309 302 308 304 317 320 315 318 320 311 303 307 327
221 218 218 219 219 221 221 222 225 229 234 238 243 246 252 262 263 265 264 263 268 277 285 288 285 310 347 353 352 353 355 359 322 319 317 317 316 312 325 336 343 353 5
220 221 219 220 219 221 221 223 226 230 234 239 244 248 251 256 259 257 257 253 258 266 276 277 276 285 325 349 7 9 8 17 13 14 347 334 333 332 338 349 350 343 341
219 220 221 222 221 222 223 225 227 231 235 238 242 246 249 250 249 247 249 247 252 257 264 266 270 279 308 335 8 2 354 351 1 18 13 2 2 6 357 357 352 350 352
218 219 221 223 225 225 227 229 231 234 237 240 243 244 246 245 242 243 244 240 245 250 256 258 255 258 289 315 342 356 357 4 20 24 21 12 5 9 349 352 0 359 357
217 218 220 223 226 228 229 231 232 234 236 237 238 239 241 243 239 236 234 238 241 244 248 251 247 242 266 295 312 301 333 352 24 40 20 20 16 12 12 9 4 355 354
217 216 217 221 223 226 227 229 231 232 234 234 234 235 236 238 234 232 229 234 238 241 242 244 242 235 250 275 283 257 269 311 348 19 27 33 29 33 25 17 6 355 354
217 217 217 218 220 223 224 225 227 227 229 230 231 232 231 231 232 228 228 232 237 239 239 241 238 235 241 260 267 237 235 260 290 334 356 9 41 29 10 6 2 11 12
216 217 217 216 218 219 220 221 224 226 227 226 226 228 229 229 228 225 228 230 235 238 238 238 235 237 242 251 265 245 238 249 260 280 299 320 346 356 344 4 21 25 17
212 214 217 218 217 217 217 218 219 221 222 223 225 224 225 224 224 225 227 229 232 233 236 236 234 236 242 249 262 252 242 252 256 264 276 291 314 330 3 40 40 24 13
214 215 214 215 216 217 216 218 218 218 220 219 219 221 222 222 223 224 225 227 231 233 235 233 233 236 240 246 257 253 244 252 258 269 269 275 246 191 101 61 40 32 26
207 210 215 218 218 218 218 217 217 217 219 220 220 221 221 222 223 225 226 228 228 231 233 233 233 234 237 240 251 259 249 247 256 256 245 229 214 194 164 58 27 39 17
214 213 207 210 212 215 217 218 217 217 218 220 222 223 224 225 224 225 225 227 231 232 231 232 233 232 233 237 245 257 263 257 254 251 231 230 224 216 211 234 321 334 356
208 213 217 214 213 212 212 213 215 216 217 218 219 220 221 221 222 224 226 228 226 227 227 228 230 232 234 236 242 250 266 267 251 241 240 239 227 228 230 233 239 273 324
208 211 212 216 219 217 218 217 217 218 215 215 217 218 216 216 217 219 224 224 225 229 226 227 230 232 235 238 242 247 258 265 250 247 242 240 236 239 237 235 242 269 300
206 209 212 213 213 216 219 220 219 218 217 219 220 222 217 221 221 227 225 226 229 230 226 230 236 237 239 241 242 246 249 261 253 250 250 252 244 243 247 245 251 272 288
205 206 207 209 212 212 211 214 217 217 219 220 222 223 227 229 224 224 231 233 233 234 230 234 238 239 241 241 243 244 248 254 260 259 255 255 252 249 249 251 254 268 271
203 205 206 206 207 209 211 213 212 214 218 221 223 223 222 226 230 230 230 227 228 225 229 235 238 241 243 244 246 248 250 250 258 264 264 264 262 258 255 251 256 261 267
206 207 209 208 207 209 209 211 212 213 215 216 217 220 225 228 231 231 229 225 220 221 227 230 231 233 236 239 240 244 248 252 254 259 263 265 268 265 259 257 258 265 270
213 208 212 216 213 211 212 214 214 214 214 214 215 219 220 221 226 228 228 230 225 226 227 227 229 229 230 234 237 240 245 250 251 252 256 261 266 269 267 268 267 271 275
213 216 214 214 217 217 217 216 215 214 213 212 214 215 217 221 222 225 226 229 230 229 228 231 234 236 237 238 241 246 252 258 260 260 259 262 266 272 273 274 275 279 280
220 216 217 218 220 219 219 221 219 216 216 217 218 219 219 221 221 222 225 225 227 230 231 233 234 237 241 245 248 250 252 255 257 260 264 267 268 270 274 272 276 284 282
232 228 224 221 218 220 221 222 222 223 225 226 226 226 226 227 228 227 227 229 229 230 231 233 235 237 241 245 247 249 251 253 256 258 260 261 264 267 270 275 270 278 283
236 237 236 233 232 231 226 224 225 226 227 228 230 232 233 235 236 237 236 234 234 237 238 238 238 239 241 244 247 249 251 253 256 260 262 264 264 264 266 269 272 271 279
235 236 236 238 239 238 237 235 233 234 235 234 235 238 242 245 245 243 243 243 243 243 243 244 245 246 245 246 249 251 252 254 256 257 259 261 264 267 270 273 275 277 278
Height
5698 5706 5712 5719 5726 5732 5738 5744 5749 5753 5757 5760 5763 5766 5768 5769 5770 5772 5772 5771 5772 5771 5769 5769 5769 5768 5768 5768 5766 5764 5762 5763 5762 5762 5762 5762 5761 5762 5761 5760 5758 5757 5755
5687 5695 5702 5709 5716 5722 5729 5735 5741 5746 5750 5753 5757 5760 5762 5764 5765 5767 5768 5767 5768 5768 5766 5766 5767 5767 5766 5765 5763 5763 5761 5760 5760 5760 5760 5760 5760 5760 5759 5758 5755 5754 5752
5675 5684 5692 5700 5708 5714 5721 5727 5732 5737 5742 5746 5751 5754 5756 5758 5760 5762 5763 5763 5763 5764 5764 5764 5764 5765 5765 5764 5763 5761 5760 5759 5758 5759 5759 5758 5758 5757 5756 5754 5753 5752 5749
5663 5673 5682 5690 5698 5705 5711 5718 5723 5729 5734 5739 5743 5746 5750 5752 5754 5756 5758 5759 5759 5760 5761 5761 5761 5761 5762 5762 5760 5759 5759 5757 5756 5756 5756 5755 5755 5754 5753 5753 5751 5749 5747
5651 5662 5672 5679 5687 5694 5701 5708 5714 5720 5725 5730 5734 5739 5742 5745 5748 5750 5751 5754 5755 5755 5757 5757 5758 5758 5759 5759 5757 5757 5757 5755 5754 5754 5753 5753 5752 5752 5751 5750 5749 5746 5744
5639 5649 5659 5668 5676 5684 5691 5698 5705 5711 5716 5721 5726 5731 5734 5737 5740 5743 5746 5748 5749 5751 5752 5754 5754 5754 5755 5755 5754 5754 5754 5753 5752 5751 5751 5750 5750 5750 5750 5749 5747 5744 5741
5627 5637 5648 5657 5665 5673 5680 5688 5694 5700 5706 5712 5717 5722 5726 5729 5733 5736 5739 5741 5743 5745 5747 5749 5750 5751 5752 5752 5751 5750 5750 5750 5749 5749 5748 5747 5747 5747 5747 5747 5745 5743 5740
5616 5626 5635 5644 5653 5661 5669 5677 5683 5690 5696 5702 5707 5712 5716 5721 5725 5729 5732 5734 5737 5739 5742 5744 5745 5746 5748 5748 5748 5747 5747 5747 5747 5747 5747 5747 5746 5746 5745 5744 5743 5741 5738
5606 5615 5624 5632 5640 5649 5658 5665 5673 5679 5685 5691 5696 5702 5707 5712 5717 5721 5725 5727 5730 5732 5736 5739 5741 5742 5743 5745 5744 5744 5744 5744 5744 5745 5745 5745 5744 5743 5743 5741 5739 5737 5735
5597 5605 5613 5621 5629 5637 5645 5653 5661 5668 5674 5680 5686 5692 5697 5703 5708 5713 5716 5719 5723 5726 5729 5732 5734 5737 5738 5740 5740 5739 5739 5741 5741 5742 5743 5743 5742 5741 5740 5737 5735 5733 5730
5586 5594 5603 5610 5618 5626 5634 5641 5649 5656 5663 5670 5676 5682 5687 5693 5699 5704 5708 5712 5715 5718 5722 5725 5728 5730 5732 5734 5735 5735 5735 5737 5738 5739 5739 5739 5738 5736 5735 5734 5732 5729 5727
5577 5585 5592 5600 5608 5616 5624 5631 5639 5646 5653 5660 5666 5671 5677 5684 5689 5694 5698 5703 5707 5710 5714 5718 5721 5725 5727 5728 5730 5731 5731 5732 5734 5734 5734 5734 5733 5732 5731 5730 5728 5726 5723
5565 5575 5583 5591 5599 5606 5614 5621 5629 5636 5643 5650 5656 5662 5668 5674 5680 5684 5689 5693 5698 5702 5706 5710 5715 5718 5720 5722 5724 5726 5726 5727 5729 5730 5729 5729 5728 5728 5726 5725 5723 5722 5720
5555 5563 5571 5580 5588 5596 5604 5611 5619 5626 5634 5640 5647 5653 5659 5665 5670 5675 5680 5684 5689 5694 5699 5703 5707 5710 5713 5716 5718 5720 5720 5721 5722 5724 5724 5723 5723 5723 5722 5721 5719 5717 5716
5546 5554 5562 5569 5577 5584 5592 5601 5609 5616 5622 5629 5635 5642 5648 5655 5662 5665 5669 5675 5679 5684 5689 5693 5698 5703 5706 5709 5711 5714 5714 5715 5716 5717 5718 5718 5717 5717 5716 5715 5714 5713 5711
5538 5546 5553 5560 5567 5575 5582 5589 5596 5603 5610 5618 5625 5632 5638 5642 5646 5651 5657 5663 5668 5674 5680 5686 5690 5693 5697 5701 5704 5706 5708 5709 5710 5711 5711 5711 5711 5711 5710 5709 5708 5707 5706
5530 5538 5546 5553 5560 5567 5574 5580 5587 5594 5601 5608 5614 5620 5626 5633 5639 5644 5649 5654 5659 5666 5674 5679 5682 5685 5689 5693 5696 5699 5700 5702 5703 5704 5705 5705 5704 5704 5703 5703 5703 5701 5699
5522 5530 5538 5545 5553 5559 5565 5572 5578 5585 5592 5599 5606 5611 5617 5622 5628 5635 5641 5646 5653 5662 5668 5672 5675 5678 5681 5685 5688 5690 5692 5694 5696 5696 5697 5698 5697 5696 5696 5696 5696 5695 5693
5514 5522 5529 5536 5543 5550 5557 5564 5570 5576 5582 5588 5595 5602 5609 5614 5620 5625 5630 5639 5646 5653 5658 5662 5666 5669 5672 5675 5678 5681 5683 5686 5687 5688 5689 5690 5690 5689 5689 5689 5688 5687 5685
5504 5513 5520 5527 5534 5541 5547 5554 5561 5567 5573 5579 5585 5591 5597 5604 5611 5619 5625 5630 5636 5642 5647 5651 5654 5657 5661 5663 5666 5670 5673 5676 5678 5679 5679 5680 5681 5681 5681 5681 5680 5679 5678
5494 5501 5510 5517 5524 5531 5538 5545 5552 5558 5563 5569 5575 5581 5587 5594 5600 5606 5613 5619 5625 5629 5634 5638 5640 5643 5647 5650 5655 5660 5662 5665 5667 5669 5669 5670 5671 5672 5671 5672 5672 5671 5670
5481 5490 5498 5505 5513 5520 5528 5535 5541 5547 5554 5560 5566 5571 5577 5584 5591 5596 5602 5608 5614 5618 5623 5627 5630 5634 5636 5639 5644 5649 5653 5655 5656 5658 5659 5660 5661 5662 5662 5662 5662 5661 5660
5468 5476 5484 5491 5499 5507 5514 5522 5529 5536 5543 5549 5556 5562 5567 5573 5578 5584 5590 5596 5601 5606 5611 5615 5620 5624 5627 5629 5633 5638 5642 5645 5646 5646 5648 5650 5651 5652 5651 5651 5652 5651 5650
5451 5461 5468 5476 5484 5492 5500 5508 5515 5523 5530 5537 5543 5549 5555 5562 5568 5573 5578 5584 5590 5595 5599 5604 5608 5612 5615 5618 5622 5627 5630 5632 5634 5635 5637 5638 5639 5640 5640 5640 5640 5640 5639
5435 5443 5452 5461 5468 5476 5485 5493 5501 5508 5514 5522 5529 5536 5543 5549 5555 5561 5566 5571 5577 5582 5587 5592 5595 5599 5602 5605 5609 5613 5617 5619 5621 5623 5625 5626 5626 5627 5627 5627 5628 5628 5627
5418 5425 5433 5441 5451 5460 5469 5477 5484 5492 5499 5506 5514 5520 5527 5534 5540 5546 5552 5557 5563 5568 5574 5578 5582 5586 5589 5592 5596 5599 5602 5605 5607 5609 5611 5612 5613 5614 5614 5615 5615 5615 5614